Regional Weather Roundup
Issued by NWS

Home | Current Version | Previous Version | Graphics & Text | Print | Product List | Glossary On
Versions: 1 2 3 4 5 6 7 8 9 10 11 12 13 14 15 16 17 18 19 20 21 22 23 24 25 26 27 28 29 30 31 32 33 34 35 36 37 38 39 40 41 42 43 44 45 46 47 48 49 50
000
ASUS45 KTFX 301604
RWRMT
MONTANA HOURLY WEATHER ROUNDUP
NATIONAL WEATHER SERVICE GREAT FALLS MT
1004 AM MDT TUE SEP 30 2014

NOTE: "FAIR" INDICATES FEW OR NO CLOUDS BELOW 12000 FEET WITH NO
SIGNIFICANT WEATHER AND/OR OBSTRUCTIONS TO VISIBILITY.

* THESE STATIONS ARE NOT UNDER NWS QUALITY CONTROL. THEY DO NOT
   REPORT WEATHER SUCH AS PRECIPITATION OR FOG.

MTZ001>007-043-301700-
WEST OF THE DIVIDE
CITY           SKY/WX    TMP DP  RH WIND       PRES   REMARKS
KALISPELL      LGT RAIN  52  48  86 S8        29.78R
MISSOULA       CLOUDY    54  52  93 CALM      29.86R
BUTTE          LGT RAIN  46  43  89 CALM      29.86R
MULLAN PASS    FOG       36  36 100 VRB5      29.89R VSB M1/4 WCI  32
* ESSEX        N/A       50  47  89 S1         N/A
* LINCOLN      N/A       48  45  89 SW3G9      N/A
* LOOKOUT PASS N/A       42  39  89 SE4G9      N/A
* POLSON       N/A       49  49 100 S1         N/A
* RONAN APT    CLOUDY    52  48  86 N/A        N/A
* SEELEY LAKE  N/A       48  47  96 SW3        N/A
* THOMP F APT  PTCLDY    41  40  96 SW1        N/A
* YAAK HILL    N/A       51  49  93 SE1        N/A
$$

MTZ008-052>055-301700-
SOUTHWEST MONTANA
CITY           SKY/WX    TMP DP  RH WIND       PRES   REMARKS
BOZEMAN        CLOUDY    52  46  80 CALM      29.82S
DILLON         CLOUDY    50  43  77 SW10      29.84S
W YELLOWSTONE  CLOUDY    41  39  93 SW12      29.90S
* THREE FORKS  CLOUDY    54  34  47 N/A        N/A
* BOULDER HILL N/A       47  35  63 S8         N/A
* RAYNOLDS PAS N/A       42  26  53 S4         N/A
* WHITEHALL    N/A       53  40  62 W8G15      N/A
* WISE RIVER   N/A       47  40  77 NW8G14     N/A
$$

MTZ009>010-012-014-046-048-049-054-301700-
EAST SLOPES AND CENTRAL MONTANA
CITY           SKY/WX    TMP DP  RH WIND       PRES   REMARKS
CUT BANK       CLOUDY    63  41  45 W21       29.66F
GREAT FALLS    CLOUDY    57  45  64 SW16G21   29.70R
HELENA         LGT RAIN  54  46  74 SE5       29.79R
MALMSTROM AFB  CLOUDY    55  46  72 SW17      29.71S
* CONRAD       PTSUNNY   61  48  62 W10G20     N/A
* DEARBORN     N/A       58  45  62 S6G12      N/A
* EAST GLACIER N/A       49  42  77 W26G32     N/A
* MONARCH      N/A       51  35  54 SW13G20    N/A
* PENDROY      N/A       60  40  48 NW12G17    N/A
* ROGERS PASS  N/A       45  42  89 E12G24     N/A
* SAINT MARY   N/A       53  41  64 S8G17      N/A
$$

MTZ011-013-016-021-035-040-045-047-050-051-301700-
NORTH CENTRAL MONTANA
CITY           SKY/WX    TMP DP  RH WIND       PRES   REMARKS
LEWISTOWN      LGT RAIN  54  46  74 W7        29.71S
* CHESTER      N/A       56  48  75 SW6        N/A
* DENTON       N/A       55  44  67 W11        N/A
* GEYSER       N/A       54  44  69 W4         N/A
* JUDITH GAP   N/A       50  45  83 W1         N/A
* LOMA         N/A       57  48  72 SW9        N/A
$$

MTZ017>020-022>027-061-062-301700-
NORTHEAST MONTANA
CITY           SKY/WX    TMP DP  RH WIND       PRES   REMARKS
GLASGOW        CLOUDY    54  50  86 SE6       29.62S
GLENDIVE       CLOUDY    54  52  93 NE3       29.63F
JORDAN         PTSUNNY   55  50  83 W5        29.62F
SIDNEY         CLOUDY    54  52  93 N6        29.64F
WOLF POINT     CLOUDY    55  52  90 E6        29.64R
* BEAVER HILL  N/A       52  51  96 E1G9       N/A
* CIRCLE       N/A       54  51  90 SW2        N/A
* LINDSAY DVD  N/A       52  51  96 E7         N/A
* NAVAJO       N/A       51  51 100 SE7        N/A
$$

MTZ028>042-056>058-301700-
SOUTHCENTRAL AND SOUTHEAST MONTANA
CITY           SKY/WX    TMP DP  RH WIND       PRES   REMARKS
BAKER          CLOUDY    54  54 100 NE5       29.60F
BILLINGS       PTSUNNY   55  45  69 SW8       29.71S
LIVINGSTON     CLOUDY    55  41  59 W20       29.77S
MILES CITY     CLOUDY    54  50  86 NW5       29.63F
* LAUREL APT   PTSUNNY   57  39  51 W16G22     N/A
* ROUNDUP APT  PTSUNNY   52  45  77 N/A        N/A
* ALZADA       N/A       52  51  96 W11        N/A
* HYSHAM       N/A       48  46  93 W9         N/A
* LAME DEER    N/A       49  47  93 W12        N/A
* REED POINT   N/A       57  39  51 W8         N/A
* ROSCOE HILL  N/A       54  32  43 W6         N/A
$$

REGIONAL REPORTS...DAKOTAS
CITY           SKY/WX    TMP DP  RH WIND       PRES   REMARKS
WILLISTON      LGT RAIN  54  52  93 SE3       29.66F
DICKINSON      LGT RAIN  52  50  93 E12       29.61F
BEACH          N/A       54  54 100 E9        29.62F
CROSBY         FOG       54  54 100 SE12      29.69S
TIOGA          LGT RAIN  50  50 100 E8        29.70F VSB 3
WATFORD CITY   LGT RAIN  52  52 100 NE7       29.63F
BISMARCK       CLOUDY    54  50  86 E17       29.66F
GRAND FORKS    CLOUDY    50  45  83 SE15G22   29.89F
FARGO          PTCLDY    52  43  72 SE18G25   29.87F
BUFFALO SD     PTSUNNY   54  54 100 NE13      29.49F
RAPID CITY     CLOUDY    54  48  80 NW8       29.45R
$$

REGIONAL REPORTS...WYOMING/IDAHO/WASHINGTON
CITY           SKY/WX    TMP DP  RH WIND       PRES   REMARKS
GILLETTE       LGT RAIN  52  48  86 NW15      29.69R
SHERIDAN       CLOUDY    55  43  64 N17       29.72R
CODY           PTSUNNY   55  39  55 NE7       29.78S
YELLOWSTONE LA CLOUDY    39  34  82 W6        29.94S WCI  35
SALMON         CLOUDY    48  46  93 SW5       29.89R
MULLAN PASS    FOG       36  36 100 VRB5      29.89S VSB M1/4 WCI  32
SAND POINT     CLOUDY    50  50 100 S5        29.85R
SPOKANE        LGT RAIN  48  41  77 SW13      29.89R

$$




USA.gov is the U.S. government's official web portal to all federal, state and local government web resources and services.